User: anonymous   Login
Location: Unspecified
(0.0000°N, 0.0000°E)
Time: 11:55:21
(UTC+00:00)
Language:

Intelsat V F6 - Orbit

View from above orbital plane
View from above orbital plane
View from above satellite
View from above satellite

Ground track
Ground track

The orbit data is extracted from the following two-line orbital elements,

1 14077U 83047A   18294.16289396 -.00000080  00000-0  00000+0 0  9997
2 14077  15.1493 356.3745 0040958 269.0696  97.2376  0.99159506 96352
Epoch (UTC): 21 October 2018 03:54:34
Eccentricity: 0.0040958
inclination: 15.1493°
perigee height: 35927 km
apogee height: 36275 km
right ascension of ascending node: 356.3745°
argument of perigee: 269.0696°
revolutions per day: 0.99159506
mean anomaly at epoch: 97.2376°
orbit number at epoch: 9635

The dashed part of the orbit path shows where the satellite is in the earth's shadow,  

DLR